Volver al catálogo

OPS 6638

VELA 7

LostMilitarHEO
NORAD 2765·PAYLOAD·🇺🇸 United States

Lanzado Apr 28, 1967 desde Cape Canaveral Space Force Station

Loading…

Próximos Pases (próximas 24 horas)

TLE

ObsoletoSource: Space-Track

Época: Apr 12, 2026, 16:37 UTC

1 02765U 67040A   26102.69259813 -.00000511  00000-0  00000-0 0  9999
2 02765  40.7970   6.5171 5048067 292.5333   0.3581  0.21563768 13342

Sigue OPS 6638 en tiempo real con AllMySat

Download on the App Store